Lapse_Rate
8.6 8.3 8.7 8.8 8.8 9.2 9.3 9.3 9.2 9.1 9.3 9.4 9.3 9.1 8.7 8.1 7.5 6.6 5.2 4.1 5.5 5.8 6.2 6.2 5.8 5.4 5.6 5.9 6.5 6.5 6.5 6.4 6.5 6.5 6.5 6.5 6.5 6.5 6.5 6.5 6.5 6.5 6.5 6.5 6.5 6.5 6.5 6.4 6.4 6.5 6.5 5.4 4.9 4.4
8.1 8.5 8.8 9.2 9.3 9.1 9.4 9.3 9.3 9.1 8.9 9.2 9.1 9.3 9.0 8.4 7.8 7.0 6.2 5.0 5.2 5.9 5.7 4.8 5.5 6.3 6.3 6.4 5.9 6.2 6.5 6.5 6.5 6.5 6.5 6.5 6.5 6.5 6.5 6.5 6.5 6.5 6.5 6.5 6.5 6.5 6.5 5.6 6.3 5.3 4.4 4.8 5.1 2.7
8.5 8.6 9.4 9.4 9.1 8.6 9.4 9.0 9.1 9.0 8.9 8.9 9.2 9.4 9.2 8.0 8.2 7.4 6.2 5.2 5.4 5.8 5.9 5.5 5.5 5.2 4.8 5.7 6.1 6.6 6.2 6.5 6.0 5.7 6.4 6.5 6.5 6.5 6.5 6.5 6.5 6.5 6.5 6.5 6.5 6.5 6.5 6.0 5.4 3.5 2.5 1.8 2.2 1.9
8.7 8.8 8.7 8.7 9.1 8.6 8.5 9.0 8.8 8.7 8.7 8.9 9.3 9.3 9.1 8.2 8.0 7.9 5.7 5.0 5.2 6.1 6.5 6.0 4.2 5.3 4.3 4.0 5.0 5.6 5.6 5.7 5.7 5.9 6.4 6.5 6.5 6.1 6.5 6.5 6.5 6.5 6.5 6.5 6.5 6.5 6.1 5.5 5.1 1.6 0.9 1.1 1.8 2.2
8.6 8.6 8.3 8.3 8.6 8.6 8.7 8.7 8.8 8.6 8.6 8.5 8.4 8.8 9.1 8.3 8.0 6.0 4.9 4.2 4.4 6.0 6.5 6.3 5.5 4.4 4.0 3.9 4.5 5.1 5.7 6.3 6.4 6.5 6.5 6.5 6.4 6.3 6.5 6.5 6.5 6.4 6.5 6.5 6.5 6.0 5.8 5.5 2.5 1.3 1.4 1.7 1.8 1.6
8.5 8.3 7.8 7.7 8.0 8.6 8.7 8.3 8.3 8.5 8.7 8.1 8.2 8.8 8.8 8.3 8.2 5.6 5.6 4.9 4.9 5.2 6.2 6.5 5.8 5.4 4.6 5.0 5.5 5.8 5.8 6.1 6.3 6.5 6.5 6.0 5.3 6.2 6.5 6.5 6.5 4.0 3.1 4.1 6.4 3.0 1.9 1.4 1.4 2.1 1.2 1.9 2.1 1.0
7.8 8.0 7.5 7.5 7.9 8.2 8.5 9.2 8.8 8.7 8.5 9.2 9.1 8.1 7.8 7.8 7.2 6.7 6.3 4.5 3.6 4.3 5.9 6.5 6.5 6.3 5.3 5.8 5.9 5.9 5.7 6.2 6.2 6.2 6.5 6.4 6.2 6.0 6.5 6.5 6.5 4.8 3.9 2.3 1.2 1.9 4.9 4.4 3.2 1.3 0.7 1.7 1.6 0.5
7.5 7.2 7.2 7.4 7.7 7.7 8.0 8.9 9.4 9.4 9.5 9.1 8.1 7.6 7.4 7.1 6.7 4.6 3.8 4.8 4.4 5.5 5.6 6.5 6.5 6.4 5.7 6.4 6.5 5.8 6.2 6.1 5.9 6.2 6.1 6.5 6.1 6.4 6.5 6.5 5.4 3.4 2.7 2.5 1.7 1.6 1.7 0.9 1.3 0.9 1.0 1.7 1.4 0.9
7.5 7.2 7.0 7.3 7.6 7.6 7.8 9.1 9.4 9.4 9.4 8.8 7.7 7.1 6.8 5.8 6.3 6.3 5.9 4.5 4.8 5.8 6.3 6.5 6.5 6.5 5.8 6.1 5.5 5.6 5.5 6.5 5.7 6.5 6.5 6.3 6.5 6.5 6.5 6.3 4.8 3.0 3.9 2.8 1.0 0.7 2.0 1.6 1.7 2.0 1.8 1.7 0.6 0.8
7.9 7.4 7.0 7.1 7.3 7.8 7.6 9.3 9.4 9.6 9.2 8.2 6.0 6.1 6.7 5.1 3.8 4.5 5.7 6.1 5.1 4.7 5.1 6.5 5.5 6.5 6.1 6.4 6.4 6.5 6.1 6.5 6.5 6.5 5.7 6.5 6.5 5.2 3.6 3.2 2.9 1.7 0.5 1.1 2.5 3.2 2.3 1.6 1.4 1.7 2.1 1.8 1.4 0.7
8.2 7.5 7.0 7.1 7.1 7.6 7.6 8.7 9.4 9.2 7.7 6.2 7.1 6.6 5.6 4.6 3.6 6.0 6.3 6.3 6.2 6.5 6.2 5.3 5.7 6.5 5.2 6.5 6.5 5.9 6.5 6.5 6.5 6.5 6.5 6.5 6.5 6.5 2.8 1.5 1.1 0.3 0.8 1.8 1.2 0.1 2.2 1.0 1.2 0.9 0.4 -0.3 -0.7 -0.2
7.9 7.2 6.9 7.2 7.1 7.4 7.8 8.3 9.2 8.1 7.6 7.2 7.1 7.1 5.0 4.6 5.8 6.5 6.5 6.3 6.5 6.5 6.1 6.5 5.7 4.1 4.6 4.8 6.3 6.3 6.5 6.5 6.5 6.3 6.5 6.5 6.5 3.0 3.5 3.2 0.0 0.1 0.3 0.9 0.9 -0.0 0.4 0.6 0.7 0.5 -0.1 -0.4 -0.9 -1.0
7.0 7.0 7.0 7.1 7.1 7.3 7.7 7.2 9.2 9.1 8.5 6.7 6.7 6.1 6.7 6.2 6.5 6.5 6.5 6.5 6.5 6.4 5.5 5.4 6.3 4.3 4.2 4.7 6.5 6.5 6.5 6.5 6.1 6.5 6.5 6.5 4.1 2.2 2.5 0.9 0.4 0.6 0.9 0.0 -0.3 0.1 -0.2 -0.8 -0.3 -0.1 -1.2 -1.4 -1.3 -1.2
6.6 6.6 6.7 6.9 7.3 6.9 6.7 6.8 6.9 7.9 7.0 6.7 6.5 6.5 6.5 6.5 6.5 6.5 6.5 6.5 3.5 4.4 4.8 4.0 5.8 6.3 5.2 6.5 6.5 6.5 6.5 6.5 6.5 6.5 6.5 6.5 1.6 3.0 1.5 1.4 1.6 1.4 0.5 -0.6 -0.8 -0.2 -0.2 -0.3 -1.2 -1.5 -1.6 -1.3 -0.9 -0.6
6.7 6.4 6.6 6.4 6.8 6.1 6.5 6.2 6.2 6.5 6.6 6.5 6.5 6.5 6.5 6.4 5.9 5.6 4.9 5.8 5.2 4.7 4.3 4.8 4.6 5.6 6.5 6.5 6.5 6.5 6.5 6.5 6.5 6.5 6.5 1.5 -1.8 0.8 1.6 2.3 1.4 0.8 0.2 -0.5 -0.2 0.2 -0.7 -0.7 -1.2 -2.1 -1.8 -1.4 -0.9 -0.8
6.9 6.2 5.0 6.5 6.1 6.0 6.3 4.7 5.6 5.9 6.3 6.1 6.3 6.5 6.7 6.5 6.5 6.0 5.4 6.0 4.9 5.0 1.7 2.7 6.5 6.5 6.5 6.5 6.5 6.5 6.5 6.5 6.5 6.5 0.1 -1.3 1.3 1.5 1.2 1.3 0.9 0.8 0.8 1.2 1.6 1.2 0.8 0.3 -0.6 -1.6 -0.8 -0.8 -0.9 -0.9
7.0 3.9 5.7 5.9 6.1 5.6 5.2 6.0 5.6 5.8 6.4 6.7 6.5 6.2 6.6 6.5 6.4 6.0 6.8 6.3 6.1 4.8 6.5 6.5 6.5 6.5 6.5 6.5 6.5 6.5 6.5 6.5 4.6 -0.1 -1.5 -2.8 -1.2 0.3 0.7 1.1 1.5 2.0 2.0 1.9 1.5 1.0 -0.5 -0.8 -0.9 -0.5 -0.9 -1.2 -1.1 -1.1
4.5 3.6 5.3 6.1 5.5 3.3 3.9 5.3 6.1 5.8 6.6 5.4 6.4 4.3 7.1 6.5 6.8 6.4 6.6 6.2 5.7 4.8 5.1 6.4 5.4 6.5 6.5 6.5 6.5 6.5 4.7 3.0 -0.1 -1.7 -1.0 -0.2 0.2 0.5 1.4 1.0 1.3 1.7 2.2 2.1 0.6 -0.3 -0.7 -1.1 -1.7 -2.3 -2.8 -2.2 -1.8 -1.0
4.7 5.0 5.9 5.7 4.8 2.5 3.3 6.9 6.0 6.4 3.9 6.9 6.4 3.8 6.5 7.0 6.5 6.1 5.7 5.8 5.8 4.6 4.1 5.5 6.5 6.5 6.5 6.5 6.5 1.9 0.3 -0.0 1.7 1.5 0.5 0.7 0.7 0.8 1.1 1.1 1.0 0.7 0.2 0.2 0.8 0.3 -1.0 -1.1 -2.2 -1.8 -1.5 -0.4 -1.3 -0.9
6.3 5.2 4.9 4.8 4.4 1.8 5.9 4.9 3.2 6.4 6.4 3.1 5.8 6.6 4.9 6.4 6.1 5.7 5.1 5.1 5.2 4.4 6.1 6.5 6.5 5.9 5.2 3.0 0.8 1.1 -0.2 -0.7 -0.4 1.6 2.1 1.1 0.8 0.4 1.2 1.4 1.3 1.1 -0.5 -0.6 -0.9 -1.1 -1.8 -1.7 -1.5 -1.4 -1.5 -0.8 -1.0 -0.5
3.6 3.1 3.8 1.8 1.0 4.7 5.8 4.3 2.7 5.0 6.8 6.6 3.6 2.9 5.2 4.1 6.5 6.2 6.0 4.5 5.7 6.3 6.5 5.8 4.9 2.9 2.3 2.0 1.7 0.9 0.7 1.2 1.1 0.2 -1.0 0.1 1.1 0.9 0.4 0.5 0.8 1.2 0.5 0.3 -0.8 0.5 -0.7 -1.6 -1.3 0.7 -0.0 -0.5 -0.5 -0.4
2.9 4.4 2.5 0.8 0.1 -1.5 2.4 4.2 1.6 1.7 5.0 6.0 3.3 1.1 6.4 6.4 4.9 5.1 5.4 6.3 6.4 6.4 5.9 5.5 4.7 3.2 2.4 2.2 1.5 0.7 0.8 1.2 1.5 1.3 1.7 0.9 0.8 1.8 2.1 2.0 2.7 1.7 1.3 0.5 -0.7 -1.5 -1.7 -1.5 -1.0 -0.5 0.0 0.7 1.0 0.6
3.7 2.2 -1.3 -1.0 1.6 1.1 2.7 -0.5 1.8 0.1 6.5 5.4 2.0 6.2 7.0 5.5 4.6 4.8 6.5 6.4 6.5 6.6 6.3 5.5 4.1 2.9 2.9 2.2 1.8 0.9 1.7 1.8 1.1 1.0 2.3 1.8 1.5 1.9 2.0 1.8 1.2 -0.8 -1.4 -1.9 -2.2 -2.0 -1.6 0.7 0.8 -0.3 0.5 0.6 1.3 2.0
3.2 -0.6 3.0 2.1 0.6 6.0 2.7 -0.3 2.6 2.0 0.3 5.5 6.5 6.5 6.5 5.4 2.6 6.3 6.5 6.5 6.7 5.6 4.5 4.5 5.6 5.2 4.6 3.8 2.5 2.2 2.5 3.2 2.3 2.1 2.8 2.4 1.9 2.2 2.2 1.1 0.7 -0.6 -2.2 -1.9 -0.6 -0.4 -0.5 0.3 1.4 0.6 0.6 0.3 0.7 0.2
4.4 2.6 1.3 5.9 -1.4 5.4 6.5 6.5 6.5 6.5 6.5 6.5 6.5 6.5 6.5 4.2 6.5 6.5 6.5 6.3 5.5 6.0 4.5 3.7 4.4 5.7 5.4 4.1 3.6 3.0 3.0 3.7 3.2 3.2 3.4 3.2 0.3 1.5 1.2 0.6 -0.4 -0.6 -0.9 -2.0 -1.0 -0.6 -0.7 -1.5 -1.1 -0.9 -0.6 -0.8 -1.9 -2.6
6.5 1.2 4.9 6.3 4.8 6.5 6.5 6.5 6.5 6.5 6.5 6.5 6.5 3.9 3.2 6.5 6.5 6.5 6.5 5.8 5.8 5.4 4.8 4.4 4.4 3.8 5.9 5.1 4.5 4.1 3.3 2.8 2.6 2.2 2.8 4.3 3.7 1.9 0.9 0.5 0.1 -0.3 -1.2 -1.0 -2.1 -2.0 -1.4 -0.9 -0.6 -0.7 -0.7 1.2 2.0 -2.6
6.5 6.5 5.0 6.5 5.2 5.5 6.0 5.5 5.0 6.4 6.5 6.5 6.5 6.5 6.5 6.5 6.5 6.5 5.0 4.6 5.1 4.9 4.0 3.5 3.9 4.3 4.9 3.6 3.0 2.5 2.4 2.7 2.7 1.7 2.5 2.9 2.4 2.7 1.4 0.5 -0.8 -2.0 -0.3 -0.2 -0.6 -0.9 -1.6 -0.7 -0.6 -0.7 -1.5 -1.9 -2.3 -1.7
5.2 5.6 6.5 3.1 3.7 1.6 6.5 6.5 6.5 6.5 6.5 5.0 6.2 6.5 6.5 6.5 6.5 3.4 1.8 2.2 3.2 3.3 3.1 4.5 4.2 3.9 3.7 2.9 2.5 2.2 2.3 2.3 1.8 1.4 1.3 0.8 -0.1 -0.8 -1.1 -0.9 -0.6 0.2 -0.8 -0.6 -0.7 -0.7 -0.4 -1.0 -1.1 -1.2 -1.8 -2.5 -3.6 -4.1
6.7 5.5 3.0 6.5 3.4 4.3 4.8 6.2 6.3 3.2 4.6 1.8 6.5 6.5 6.0 3.1 0.2 0.1 0.7 1.8 2.2 3.0 5.6 5.8 5.2 4.4 3.6 2.8 2.7 3.2 3.5 4.3 4.6 4.1 2.7 2.9 1.7 0.7 0.1 -0.8 -0.7 -0.4 -0.1 0.7 2.3 -0.2 -1.2 -0.9 -0.7 -1.3 -1.7 -2.9 -5.4 -6.6
5.0 4.9 4.6 4.9 6.5 6.5 2.2 0.7 -0.0 5.1 3.3 3.6 4.7 2.9 2.8 0.6 -0.5 -0.3 0.9 2.1 2.8 3.9 5.6 5.7 5.9 5.7 5.4 4.8 4.2 3.2 2.0 2.4 3.0 2.8 2.0 0.6 -0.9 -0.6 -0.2 -0.2 0.1 0.9 2.0 2.0 2.2 2.9 3.3 0.5 -0.2 -2.1 -3.2 -3.9 -4.1 -4.6
2.6 2.8 2.0 3.1 6.1 -0.3 -1.1 0.2 0.5 6.5 -0.2 -1.2 0.0 2.2 1.8 -0.2 0.4 1.2 1.6 1.7 2.2 4.4 5.7 5.6 5.2 4.8 5.0 4.9 4.4 3.8 2.3 0.6 0.2 -0.7 -1.5 -1.2 -0.6 -0.2 0.1 0.6 1.1 1.2 1.0 0.1 -0.3 -0.5 -1.1 -2.1 -2.7 -3.5 -3.9 -4.2 -3.7 -5.5
2.0 1.5 5.9 6.5 4.9 1.5 0.5 -1.3 -2.6 -1.5 -2.4 0.2 0.8 -1.2 0.2 3.0 4.3 3.0 1.9 1.6 4.1 4.6 5.8 4.8 3.9 2.7 1.7 1.3 1.3 1.0 0.6 -0.4 -0.6 -1.0 -1.2 -1.3 -1.2 -0.7 -0.3 -0.1 0.1 0.2 -0.1 -0.8 -1.3 -1.7 -2.4 -3.1 -3.4 -3.6 -4.1 -5.4 -6.8 -7.2
2.3 0.3 -0.1 0.4 3.0 3.8 2.0 1.1 1.6 0.4 -0.1 -0.9 0.1 -0.1 2.6 4.5 5.4 3.0 1.8 1.2 1.5 2.3 2.4 1.8 1.3 1.0 0.6 0.5 0.3 0.1 -0.0 -0.3 1.0 1.9 1.7 1.5 1.2 0.6 0.0 -0.0 0.0 -0.2 -0.9 -1.7 -2.3 -2.7 -3.1 -3.5 -4.0 -4.9 -5.9 -7.2 -8.6 -8.2
Wind_Speed
28 29 30 29 28 27 26 24 23 22 22 22 24 25 25 25 24 12 6 5 2 1 1 3 3 4 3 3 3 3 2 3 4 5 3 3 4 5 1 2 3 5 3 3 2 1 3 1 2 6 3 2 4 6
28 29 30 30 28 26 23 23 23 22 22 22 23 24 24 24 24 18 3 4 2 1 1 1 3 2 5 6 4 3 2 1 3 3 3 2 2 3 4 3 1 3 4 4 6 4 3 3 2 2 1 4 2 6
28 28 29 29 27 24 24 21 21 21 22 21 22 23 24 24 24 14 4 3 0 1 2 1 5 3 2 4 3 3 2 2 3 2 2 2 4 3 4 4 3 3 2 1 2 2 2 2 2 3 5 4 7 10
28 27 28 27 26 22 20 21 20 19 20 20 21 22 22 24 22 15 3 3 4 1 1 2 1 2 2 4 3 2 1 2 2 2 2 3 3 2 3 2 3 4 3 4 3 3 4 4 0 6 7 10 12 9
25 25 26 24 24 22 20 20 20 19 18 20 21 21 22 23 23 11 5 4 5 2 1 1 1 2 3 5 5 4 5 3 2 3 3 3 2 2 1 1 3 5 6 4 5 5 3 3 6 7 10 9 11 16
23 23 22 22 22 21 21 21 20 18 20 21 22 23 23 22 22 4 2 3 4 2 2 2 1 2 2 4 4 4 3 3 2 3 2 2 0 2 2 3 5 5 4 3 2 4 4 6 7 4 9 9 9 11
22 19 19 20 21 22 22 22 22 22 22 23 25 25 25 24 6 3 3 1 11 5 1 2 2 1 3 2 2 2 3 2 2 2 1 1 2 2 1 3 5 2 4 3 5 8 6 2 5 8 13 12 13 12
21 18 17 19 20 20 22 23 24 24 26 27 28 30 26 19 10 5 6 16 5 2 1 1 2 1 5 2 2 2 1 1 1 2 2 0 0 1 4 7 3 3 6 5 5 3 6 12 12 11 11 14 14 11
20 18 18 18 18 20 22 24 24 26 28 30 29 23 2 2 3 2 3 6 3 2 2 2 3 2 2 1 1 0 1 2 1 1 1 1 1 4 7 6 6 7 6 8 7 9 10 14 14 13 13 11 15 10
19 19 19 20 19 20 22 24 22 25 28 23 6 3 2 3 18 6 3 3 2 1 2 2 1 2 1 1 0 0 1 1 1 0 1 2 3 6 6 6 4 8 12 13 14 5 8 8 12 11 10 10 12 11
20 18 19 21 22 22 23 19 23 28 11 3 3 2 3 12 3 3 1 2 3 2 3 3 3 4 2 2 2 0 1 0 1 2 1 2 4 5 2 8 6 9 13 6 5 7 7 15 17 15 11 9 10 11
20 19 20 21 23 24 20 18 25 9 4 6 8 6 2 3 2 2 3 1 4 6 4 4 4 4 2 0 2 1 1 0 3 1 1 3 4 1 2 4 7 11 9 7 6 13 13 14 13 13 12 11 9 11
20 21 21 22 23 24 18 25 25 23 14 1 1 1 1 2 3 6 7 4 4 3 3 3 2 3 2 1 2 2 2 3 1 0 4 4 3 4 1 4 7 7 9 10 10 11 14 13 11 13 12 10 12 12
19 20 21 22 16 19 24 25 24 11 2 0 1 4 2 2 3 2 2 2 3 4 7 4 3 3 2 3 2 3 1 1 1 2 5 3 4 2 3 4 9 10 9 12 13 14 15 15 12 11 11 12 13 12
19 20 22 7 18 25 25 23 14 1 1 2 2 3 3 2 2 3 2 2 2 2 5 4 3 3 2 3 2 3 1 4 5 4 3 3 3 3 5 4 7 8 9 10 12 14 14 15 14 12 9 10 12 11
17 16 2 12 25 26 25 7 3 2 0 1 3 2 3 4 2 2 1 2 2 1 1 3 3 3 3 4 3 7 7 6 4 3 3 1 3 3 5 6 6 7 10 11 11 13 14 14 15 13 11 10 9 10
13 3 8 22 23 21 11 1 1 1 2 2 1 1 1 5 3 2 2 2 1 0 3 3 5 7 3 3 2 4 5 3 2 2 2 2 4 6 6 7 7 10 11 12 13 12 13 14 14 14 13 6 10 9
3 5 17 18 14 4 3 1 1 2 3 2 2 2 3 4 4 3 3 3 0 2 2 3 4 2 5 6 4 4 3 1 1 1 1 2 5 6 6 9 8 10 12 12 12 13 14 13 12 8 11 10 11 9
5 8 11 14 5 1 2 2 1 2 4 3 4 3 2 4 6 5 3 6 3 1 2 1 2 4 4 3 4 2 2 2 3 1 2 3 5 8 8 8 10 11 13 14 14 9 8 9 10 9 8 8 8 6
12 3 10 8 1 2 2 2 2 2 3 3 4 4 3 4 4 4 3 3 2 2 3 3 4 2 3 2 2 1 2 4 4 3 3 3 3 7 9 10 9 11 10 12 11 15 10 9 7 7 7 8 9 7
4 3 6 4 3 1 1 1 2 2 3 3 3 3 4 3 3 2 2 2 2 3 2 0 1 1 2 3 2 2 3 4 3 3 4 4 3 5 6 7 10 9 10 9 10 10 10 8 7 7 8 7 7 6
2 5 2 4 3 3 0 1 2 2 2 3 3 2 4 3 3 2 3 2 2 2 2 2 2 2 3 3 3 1 3 5 4 5 9 13 7 6 8 8 8 8 8 8 9 9 8 7 8 8 8 9 9 7
3 3 3 3 3 3 4 2 3 3 1 4 3 4 3 3 2 3 1 1 1 2 3 2 3 3 3 3 2 5 5 5 4 4 6 5 7 7 6 6 7 11 9 7 8 9 9 15 12 10 9 9 8 8
5 3 1 0 2 3 2 3 2 3 3 3 2 5 4 2 3 1 2 1 2 4 6 9 3 2 1 3 2 2 3 4 6 5 5 8 8 6 6 7 7 7 8 10 9 9 9 9 15 9 9 9 8 7
2 4 3 3 3 3 4 5 5 3 2 2 2 4 3 2 2 2 1 3 4 5 6 7 6 4 1 1 1 1 2 3 6 7 2 6 10 9 8 8 9 7 8 12 11 11 9 8 8 9 8 8 9 7
1 4 4 4 2 3 4 1 2 4 1 2 4 3 3 2 2 4 1 2 3 3 5 6 6 6 2 2 0 1 1 3 6 6 4 6 6 9 11 12 11 5 3 7 12 13 11 9 10 11 9 11 15 9
3 4 2 1 2 3 1 2 2 2 1 3 3 3 3 3 4 2 1 0 2 2 6 7 6 6 2 1 2 2 3 4 5 5 6 7 6 5 8 10 10 6 8 9 10 12 13 11 10 10 8 6 5 5
4 4 5 3 2 1 4 1 3 5 3 2 1 2 3 3 3 1 2 2 4 6 6 5 4 2 1 3 4 5 6 8 10 11 11 10 9 8 10 10 10 20 11 10 10 9 10 10 10 10 9 8 5 3
3 3 4 2 2 1 4 6 4 2 2 3 3 3 3 2 2 1 3 4 6 5 4 2 2 1 4 4 4 4 4 6 13 18 17 9 7 6 7 9 9 9 9 9 17 15 14 11 10 9 9 7 5 4
4 3 3 2 5 5 3 3 3 1 2 2 1 1 2 2 2 1 2 4 4 4 3 2 2 1 3 5 5 5 5 5 2 8 11 10 7 8 8 9 10 10 9 11 12 14 22 15 14 7 7 5 4 3
2 3 3 2 3 2 3 2 2 1 2 1 1 2 3 3 2 1 2 3 4 4 2 2 3 4 4 4 3 5 5 6 9 14 14 11 10 9 9 10 9 9 9 11 10 10 10 8 7 8 7 6 4 5
2 3 4 2 3 2 2 2 1 1 3 1 2 1 3 2 2 1 3 4 2 3 4 4 4 4 4 4 5 7 15 9 9 10 14 10 10 10 9 8 8 9 10 10 9 9 10 10 7 7 6 6 4 3
3 3 2 2 2 1 1 3 3 3 1 1 2 2 2 1 3 1 1 2 1 2 3 4 4 4 6 7 7 9 11 9 17 23 24 22 20 16 9 7 8 9 11 9 8 9 10 11 8 7 6 5 3 2
Wind_Direction
328 328 331 331 331 333 334 336 335 337 338 338 340 342 343 349 352 351 292 289 314 78 198 188 160 140 118 169 182 159 255 202 192 174 203 200 205 221 233 239 204 179 179 232 111 50 333 94 149 182 213 351 144 119
326 327 332 330 331 330 334 334 334 337 336 337 337 339 342 346 350 350 299 327 266 32 204 296 269 238 179 174 167 190 275 249 247 139 208 257 221 150 196 263 132 239 187 191 172 213 256 308 314 2 146 131 140 114
325 330 333 333 334 328 330 331 329 332 331 332 334 336 339 341 340 351 300 310 70 125 279 318 226 202 140 189 159 195 210 229 268 355 156 247 239 135 163 230 207 235 197 173 65 345 237 306 348 45 34 84 96 113
327 332 332 335 337 336 330 328 331 327 330 328 332 332 332 332 331 341 298 311 293 225 221 245 89 210 145 144 135 140 71 261 262 260 205 213 211 153 206 208 187 204 135 166 266 263 323 278 249 117 88 96 94 79
330 332 335 336 340 344 341 335 332 333 329 326 328 324 325 326 325 319 262 240 236 267 285 294 201 165 142 149 174 197 237 241 251 242 196 209 146 136 294 64 249 185 182 168 214 213 172 196 147 126 124 123 122 120
331 333 340 341 342 342 339 338 338 335 332 326 320 318 317 320 325 341 299 198 208 251 348 280 123 167 136 168 211 217 234 237 244 280 206 151 312 146 162 236 257 215 210 165 204 104 80 97 93 70 111 118 114 112
328 334 337 336 336 339 340 337 336 335 325 323 319 313 309 304 291 231 267 316 323 317 181 309 266 144 148 167 209 206 200 236 235 275 280 153 185 217 182 219 266 263 212 101 124 115 65 152 145 107 111 105 99 89
324 330 333 332 334 335 334 333 331 330 329 320 314 306 301 292 282 258 248 250 204 227 144 229 269 287 171 170 220 203 232 261 210 336 319 308 134 88 257 229 185 98 104 86 3 353 120 115 107 106 115 119 108 108
322 326 328 328 330 330 330 329 329 331 328 319 316 309 297 150 208 283 226 151 184 199 195 171 166 223 137 340 66 322 305 245 113 227 251 53 195 225 229 211 180 183 164 139 79 84 110 122 125 127 127 123 121 124
322 323 325 324 326 328 328 328 328 331 330 329 345 337 215 44 313 295 150 164 137 238 197 215 108 167 173 154 329 359 22 339 238 245 315 225 255 254 241 222 204 153 137 138 114 90 111 117 138 141 141 137 136 137
320 322 325 322 324 327 328 328 329 332 334 354 336 327 292 323 314 181 182 169 149 208 191 189 156 147 217 154 181 311 198 20 15 272 265 259 262 239 240 184 165 146 160 166 103 109 134 148 149 140 128 123 126 128
318 319 322 322 322 326 328 329 328 336 297 288 278 301 335 318 316 138 182 199 200 201 174 162 179 142 153 216 110 9 117 92 252 337 276 255 252 272 1 162 153 151 149 138 134 132 129 134 138 131 130 126 116 111
313 315 321 323 322 323 327 329 326 322 314 36 307 292 276 267 225 198 188 195 183 169 161 153 108 126 107 80 63 107 160 232 21 65 239 237 273 289 201 117 117 120 117 115 111 118 122 117 120 130 122 114 116 113
310 313 320 324 333 333 329 330 331 329 295 7 283 301 226 261 250 274 297 208 257 131 155 134 112 126 140 84 139 106 58 68 255 254 240 255 248 255 156 136 135 143 135 131 130 129 126 124 113 110 118 125 125 125
311 314 319 325 336 332 331 339 339 329 96 241 217 255 250 305 285 303 299 312 284 173 149 97 52 96 105 108 109 119 111 244 222 234 231 243 251 168 143 126 123 127 128 125 131 130 124 125 120 109 107 112 116 118
315 318 270 338 334 330 334 336 10 33 291 260 249 283 297 293 340 285 271 288 288 233 45 69 125 123 175 138 122 209 148 224 245 218 239 280 154 135 129 118 114 116 122 125 125 128 124 125 123 116 102 102 106 116
314 237 306 330 329 334 341 10 19 355 271 258 243 254 313 262 263 281 279 249 235 200 202 131 163 196 94 95 243 193 205 226 244 266 273 216 161 143 121 109 111 122 123 124 122 114 110 113 115 114 110 93 95 92
243 280 313 330 340 345 324 53 29 360 288 298 316 281 314 273 273 268 283 288 252 211 153 214 125 145 180 172 242 232 220 165 310 253 234 145 126 121 125 123 114 119 119 115 115 118 121 118 112 107 109 110 101 98
261 298 326 336 340 45 23 354 23 317 246 295 291 275 260 280 272 266 277 288 273 254 133 120 142 194 216 220 202 221 208 189 160 104 43 87 124 125 115 108 111 113 119 124 127 120 110 105 119 123 124 122 118 118
310 343 345 344 1 67 359 288 3 283 287 277 291 286 275 262 282 272 268 271 250 181 216 217 211 208 207 244 198 167 211 151 127 96 59 40 78 114 126 128 125 122 110 107 102 112 110 103 105 116 121 130 125 124
7 321 10 45 22 66 243 273 297 238 298 290 287 324 290 297 259 269 299 14 232 222 231 5 13 290 287 283 273 173 147 155 192 163 160 142 131 118 110 118 128 130 129 129 125 126 116 121 126 127 119 109 107 106
265 359 52 16 76 2 104 228 191 267 284 277 315 325 278 294 294 322 295 262 350 5 341 333 348 322 317 318 306 118 133 119 99 109 109 132 136 137 144 143 139 131 130 132 130 127 120 119 115 113 114 116 111 109
49 51 45 32 50 49 252 37 53 340 328 288 347 353 302 300 277 322 308 10 318 341 304 298 328 326 304 317 72 70 82 112 112 126 139 125 119 120 131 124 133 131 120 105 117 121 120 128 125 119 120 119 122 123
41 55 100 93 91 247 3 360 344 5 352 2 19 297 297 265 322 269 267 336 5 352 358 347 327 319 2 30 36 62 57 104 108 102 132 132 121 107 114 113 107 109 120 124 121 120 119 121 128 126 126 125 123 127
71 298 102 282 321 42 31 356 344 39 271 283 341 297 295 354 291 271 271 343 342 359 355 341 338 341 335 32 11 65 54 148 140 127 81 128 122 111 98 93 96 107 128 124 126 126 120 116 117 120 122 125 125 121
218 247 140 196 260 146 182 157 216 222 196 303 249 278 326 284 274 258 346 332 319 327 343 332 322 318 352 10 139 78 58 109 124 118 125 146 144 137 135 130 124 100 64 120 128 127 123 124 123 122 119 131 138 121
236 255 208 220 168 124 57 8 21 123 198 221 274 328 346 283 267 266 307 38 295 297 297 289 283 285 229 159 89 39 41 73 89 101 92 93 97 111 135 130 126 126 128 125 129 133 131 129 126 119 112 90 101 123
211 184 180 209 98 85 150 146 178 206 225 231 50 278 214 228 262 283 249 279 308 305 295 290 305 321 75 107 115 114 102 110 107 101 87 65 65 73 87 90 101 112 104 105 108 113 120 121 122 124 123 122 121 104
207 163 116 106 70 150 209 192 213 220 147 128 163 251 256 250 239 266 291 308 301 285 297 317 321 58 85 76 69 87 132 148 140 123 112 113 101 73 86 97 100 104 106 110 118 115 111 114 117 117 115 117 115 101
197 147 113 127 160 217 240 172 190 194 164 170 233 331 295 284 252 227 291 302 320 322 315 334 340 21 117 113 99 70 31 39 39 132 134 126 116 116 108 108 106 104 113 115 116 116 111 106 108 102 102 99 96 96
114 101 77 116 219 251 229 282 318 93 37 11 325 172 252 280 301 248 297 294 292 302 352 29 46 30 60 61 68 94 77 31 77 90 99 107 109 109 110 110 113 112 109 110 114 117 118 108 108 107 103 105 117 112
99 152 137 167 262 290 25 63 69 77 335 359 265 323 321 329 275 309 342 322 8 22 48 52 54 40 30 38 56 78 99 100 101 104 106 106 102 100 99 99 102 107 108 106 109 115 109 110 110 110 117 124 127 123
81 83 77 83 41 1 267 89 23 330 348 299 267 224 245 254 266 313 329 335 19 22 42 45 43 52 62 66 78 93 94 102 114 113 111 112 114 112 103 102 104 106 106 106 103 106 102 107 111 119 124 129 127 112